Weather in Vsheli

Russia / Novgorod Oblast     58°08′46″N   29°52′16″E
temp.,
°C
wind,
m/s
gust,
m/s
humid.,
%
clouds,
%
prec.,
mm/h
press.,
hPa
HPBL,
m
3 march, wed
wed300:000wnw4119128 0.0 1021437
03:00−1wnw4119324 0.0 1021484
06:00−1wnw4119137 0.0 1019483
09:00−1w5118845 0.0 1019639
12:00+2w5107577 0.0 1017945
15:00+4w6136874 0.0 10151349
18:00+2wsw41287100 0.0 1011950
21:00+2w5147999 0.0 1009667
4 march, thu
thu400:00+2w51291100 0.0 1006716
03:00+1wnw3993100 0.3 1006613
06:00−2nw2781100 0.6 1004362
09:00−2nnw2678100 0.6 1004459
12:000nnw2461100 0.0 1003864
15:000nw456472 0.1 10041242
18:00−3nnw587387 0.2 1004931
21:00−4nnw487582 0.3 1006903
5 march, fri
fri500:00−5nnw377792 0.0 1007711
03:00−5nw377866 0.0 1008636
06:00−6nw27847 0.0 1009584
09:00−6nw367843 0.0 1010780
12:00−5nw356593 0.0 10121025
15:00−4nw455897 0.1 10131273
18:00−5nnw3567100 0.1 10141002
21:00−6nnw377797 0.1 1016723
6 march, sat
sat600:00−7nw268380 0.0 1018577
03:00−7nw278652 0.0 1018361
06:00−8wnw37890 0.0 1018309
09:00−7w37800 0.0 1017437
12:00−3wsw58560 0.0 10161039
15:00−2wsw6125243 0.0 10121472
18:00−4sw81688100 0.4 10061358
21:00−2wsw81689100 1.4 10011243
7 march, sun
sun700:00−1wsw71593100 1.2 9971096
03:000wsw71694100 3.1 9911221
06:00−4nw71577100 2.5 989986
09:00−7w91758100 2.7 9902326
12:00−6wnw91769100 0.1 9911618
15:00−4wnw91766100 0.1 9911491
18:00−6wnw81479100 0.1 9941449
21:00−7nw61282100 0.3 9971073